Flag for Germany Weather past 2 weeks in Ilmenau, Thuringia, Germany

Now
61 °F

Clear.


Feels Like: 61 °F
Forecast: 57 / 68 °F
Wind: 5 mph from South

Location: Erfurt-Bindersleben

Current Time: Sep 19, 2014 at 2:18:06 AM

Latest Report: Sep 19, 2014 at 1:50 AM


Visibility: 10 mi

Pressure: 29.92 "Hg

Humidity: 88%

Dew point: 57 °F

Location of IlmenauLocation

Historic Weather in Ilmenau — Graph

°F

Ilmenau temperature yesterday

Maximum temperature yesterday: 68 °F (at 4:20 PM)
Minimum temperature yesterday: 52 °F (at 7:20 AM)
Average temperature yesterday: 61 °F

Past Weeks' High & Low Weather Summary

 TemperatureHumidityPressure
High75 °F (Sep 5, 4:20 PM)100% (Sep 4, 7:50 AM)30.18 "Hg (Sep 4, 7:50 AM)
Low52 °F (Sep 10, 11:50 PM)50% (Sep 16, 4:20 PM)29.89 "Hg (Sep 6, 3:50 PM)
Average60 °F87%30.04 "Hg
* Reported Sep 4 1:20 AM — Sep 19 1:20 AM, Ilmenau, Weather by CustomWeather, © 2014

Note: Actual official high and low records may vary slightly from our data, if they occured in-between our weather recording intervals... More about our weather records

Advertising

Ilmenau weather history for previous 24 hours

 ConditionsComfort  
Time TempWeatherWind HumidityBarometerVisibility
1:20 AM
Sep 19
61 °FClear.1 mph88%29.92 "Hg10 mi
12:50 AM61 °FClear.3 mph88%29.92 "Hg10 mi
12:20 AM61 °FClear.6 mph88%29.95 "Hg10 mi
11:50 PM
Sep 18
63 °FClear.7 mph83%29.95 "Hg10 mi
11:20 PM63 °FClear.7 mph83%29.92 "Hg10 mi
10:50 PM63 °FClear.8 mph83%29.92 "Hg10 mi
10:20 PM63 °FClear.6 mph83%29.95 "Hg10 mi
9:20 PM64 °FClear.5 mph78%29.95 "Hg10 mi
8:50 PM66 °FLight rain. Clear.5 mph78%29.95 "HgN/A
8:20 PM66 °FLight rain. Clear.5 mph78%29.95 "HgN/A
7:50 PM66 °FLight rain. Clear.3 mph78%29.95 "HgN/A
7:20 PM66 °FSunny.3 mph78%29.95 "Hg10 mi
6:50 PM66 °FSunny.2 mph78%29.95 "Hg10 mi
6:20 PM68 °FLight rain. Clear.3 mph73%29.92 "HgN/A
5:50 PM68 °FLight rain. Clear.5 mph78%29.92 "HgN/A
5:20 PM68 °FSunny.6 mph78%29.92 "Hg10 mi
4:50 PM68 °FSunny.6 mph78%29.92 "Hg10 mi
4:20 PM68 °FSunny.6 mph73%29.92 "Hg10 mi
3:50 PM66 °FSunny.3 mph78%29.92 "Hg10 mi
3:20 PM66 °FSunny.5 mph78%29.92 "Hg10 mi
2:50 PM66 °FLight rain. Clear.3 mph83%29.92 "HgN/A
2:20 PM66 °FLight rain. Clear.3 mph78%29.92 "HgN/A
1:50 PM64 °FSunny.5 mph83%29.92 "Hg10 mi
1:20 PM64 °FSunny.6 mph83%29.92 "Hg10 mi
12:50 PM64 °FSunny.6 mph78%29.92 "Hg10 mi
12:20 PM64 °FPartly sunny.2 mph73%29.95 "HgN/A
11:50 AM64 °FPartly sunny.3 mph78%29.95 "HgN/A
11:20 AM63 °FSunny.3 mph83%29.95 "Hg10 mi
10:50 AM63 °FSunny.1 mph88%29.95 "Hg10 mi
10:20 AM59 °FSunny.2 mph88%29.95 "Hg10 mi
9:50 AM57 °FSunny.5 mph88%29.95 "Hg10 mi
9:20 AM55 °FSunny.6 mph94%29.95 "Hg10 mi
8:50 AM55 °FSunny.3 mph94%29.92 "Hg10 mi
8:20 AM55 °FSunny.3 mph88%29.92 "Hg10 mi
7:50 AM52 °FClear.5 mph100%29.95 "Hg10 mi
7:20 AM52 °FClear.3 mph94%29.92 "Hg10 mi
6:50 AM54 °FClear.3 mph94%29.92 "Hg10 mi
6:20 AM54 °FClear.3 mph94%29.92 "Hg10 mi
5:50 AM54 °FClear.3 mph94%29.92 "Hg10 mi
5:20 AM54 °FClear.3 mph94%29.92 "Hg10 mi
4:50 AM54 °FClear.5 mph94%29.92 "Hg10 mi
4:20 AM54 °FClear.2 mph94%29.92 "Hg10 mi
3:50 AM54 °FClear.5 mph94%29.92 "Hg10 mi
3:20 AM54 °FClear.6 mph94%29.92 "Hg10 mi
2:50 AM55 °FClear.6 mph94%29.92 "Hg10 mi
2:20 AM55 °FClear.5 mph94%29.95 "Hg10 mi
Weather by CustomWeather, © 2014

See weather overviewHow to use our weather pages